STARLINK-30996, 59023

Orbit data source: Space-Track

STARLINK-30996, 59023 is a payload satellite owned by SpaceX/Seattle (US) in LEO that was launched on Sun, 25 Feb 2024 UTC via an FALCON 9 launch vehicle from the Air Force Eastern Test Range (AFETR). Payload-class satellites include a variety of spacecraft equipped with specific instruments for various scientific and technological missions. These include communications satellites like Starlink; space stations such as the ISS; scientific satellites like the Hubble; Earth observation satellites from companies like Planet Labs, Umbra, and HawkEye 360; GPS; miniature CubeSats for education and research; and military/defense satellites.

Loading next visibility...
Identifier
59023, 2024-038A
Orbit
LEO
Country
Flag of USUS
Related business
Manufacturer
SpaceX/Seattle
Mission
Operational Commercial Communications
Bus & Motor
STARLINK V2M, Unknown motor
Mass
730 kg wet, ~700 kg dry
Launch date (UTC)
2024-02-25 (2 years ago)
Launch vehicle
FALCON 9
Launch site
Air Force Eastern Test Range (AFETR)
Object type
Payload
Rocket body
Debris
Shape & HBR
Box + 2 Pan, 17.7 m
Radar Cross Section
33.884 m², Large (>1 m²)

Expand to show TLE details & history
Last TLE update: 18 hours ago

TLE from 18 hours ago
0 STARLINK-30996
1 59023U 24038A   25348.85644117 -.00005111  00000-0 -17655-3 0  9991
2 59023  42.9971 146.1441 0000681 269.2213  90.8561 15.27541337103151
Epoch: 2025-12-14T20:33Z
TLE epoch observation values (Epoch: 2025-12-14T20:33:16.517Z)
Latitude
0.00003°
Longitude
114.06196°
Altitude
482.947 km
Speed
7.626 km/s
True Right ascension
09h 44m 34s
True Declination
0° 00' 00"
Sunlit
Object was in full shadow at epoch
Visualization orbit readout
Latitude
Unknown
Longitude
Unknown
Altitude
Unknown
Speed
Unknown
Apparent Right ascension
Unknown
Apparent Declination
Unknown
Sunlit
N/A
Visualization observer readout
Local Sidereal Time
13:24:44
Azimuth
Unknown
Elevation
Unknown
Doppler factor
Unknown
Orbital elements
Apogee altitude
485.578 km
Perigee altitude
484.643 km
Semi-major axis
6,863.247 km
Eccentricity
0.00007
Inclination
42.9971°
RAAN
146.1441°
Arg. of periapsis
269.2213°
True anomaly
90.8639°
Mean anomaly
90.8561°
Eccentric anomaly
90.86°
Mean motion
3.81723 °/min
Orbital period
94.31 mins
BSTAR
-0.00017655
Loading maneuver chart data...
Computing Atmospheric mass density...
Loading historical data...
Loading historical data...
Loading historical data...
Loading historical data...
Loading historical data...
Loading historical data...
Loading historical data...

Documentation

Showing up to 5 results
|